When you browse on this site, cookies collect data to enhance your experience and personalize the content and advertising you see.
Visit our Privacy Policy to learn more. By continuing to use the site, you agree to this use of cookies and data.
  • In Sweden
  • List of Countries
  • For 7 days
  • Water Temperature
  • Satellite Maps
  • Weather Map
  • Weather Widgets
  • user-avatar
    Login

    Hourly Weather Tokarevo

    Today, 23 March, Saturday

    Time Temperature Precipitation Wind Pressure Humidity
    00:00 -1°C° 0 mm 3 mps 765 mmHg 76%
    01:00 -1°C° 0 mm 3 mps 765 mmHg 79%
    02:00 -2°C° 0 mm 2 mps 765 mmHg 82%
    03:00 -2°C° 0 mm 2 mps 765 mmHg 83%
    04:00 0°C° 0 mm 1 mps 765 mmHg 84%
    05:00 0°C° 0 mm 1 mps 765 mmHg 85%
    06:00 0°C° 0 mm 1 mps 765 mmHg 80%
    07:00 +1°C° 0 mm 1 mps 765 mmHg 75%
    08:00 +1°C° 0 mm 2 mps 765 mmHg 70%
    09:00 +3°C° 0 mm 2 mps 764 mmHg 61%
    10:00 +4°C° 0 mm 3 mps 763 mmHg 52%
    11:00 +5°C° 0 mm 4 mps 762 mmHg 43%
    12:00 +6°C° 0 mm 4 mps 762 mmHg 40%
    13:00 +7°C° 0 mm 5 mps 761 mmHg 37%
    14:00 +8°C° 0 mm 5 mps 760 mmHg 34%
    15:00 +7°C° 0 mm 5 mps 759 mmHg 38%
    16:00 +6°C° 0 mm 4 mps 759 mmHg 41%
    17:00 +6°C° 0 mm 4 mps 758 mmHg 45%
    18:00 +5°C° 0.2 mm 4 mps 757 mmHg 53%
    19:00 +5°C° 0.2 mm 4 mps 757 mmHg 62%
    20:00 +5°C° 0.2 mm 4 mps 756 mmHg 71%
    21:00 +4°C° 0.1 mm 4 mps 756 mmHg 76%
    22:00 +4°C° 0.1 mm 4 mps 756 mmHg 82%
    23:00 +4°C° 0.1 mm 4 mps 755 mmHg 87%

    Tomorrow, 24 March, Sunday

    Time Temperature Precipitation Wind Pressure Humidity
    00:00 +3°C° 0 mm 4 mps 755 mmHg 87%
    01:00 +1°C° 0 mm 4 mps 755 mmHg 87%
    02:00 +1°C° 0 mm 4 mps 755 mmHg 87%
    03:00 0°C° 0 mm 4 mps 755 mmHg 84%
    04:00 0°C° 0 mm 4 mps 755 mmHg 80%
    05:00 0°C° 0 mm 4 mps 755 mmHg 76%
    06:00 0°C° 0 mm 4 mps 755 mmHg 73%
    07:00 0°C° 0 mm 5 mps 755 mmHg 71%
    08:00 +1°C° 0 mm 5 mps 755 mmHg 68%
    09:00 +1°C° 0 mm 5 mps 755 mmHg 61%
    10:00 +2°C° 0 mm 6 mps 755 mmHg 54%
    11:00 +3°C° 0 mm 6 mps 755 mmHg 47%
    12:00 +4°C° 0 mm 6 mps 755 mmHg 44%
    13:00 +4°C° 0 mm 6 mps 755 mmHg 42%
    14:00 +4°C° 0 mm 6 mps 755 mmHg 39%
    15:00 +4°C° 0 mm 6 mps 754 mmHg 41%
    16:00 +5°C° 0 mm 5 mps 754 mmHg 42%
    17:00 +5°C° 0 mm 5 mps 754 mmHg 43%
    18:00 +3°C° 0 mm 5 mps 754 mmHg 48%
    19:00 +1°C° 0 mm 4 mps 754 mmHg 53%
    20:00 0°C° 0 mm 4 mps 754 mmHg 58%
    21:00 0°C° 0 mm 4 mps 754 mmHg 62%
    22:00 0°C° 0 mm 4 mps 753 mmHg 66%
    23:00 -1°C° 0 mm 4 mps 753 mmHg 70%

    Day after tomorrow, 25 March, Monday

    Time Temperature Precipitation Wind Pressure Humidity
    00:00 -1°C° 0 mm 4 mps 753 mmHg 70%
    01:00 -1°C° 0 mm 4 mps 752 mmHg 70%
    02:00 -1°C° 0 mm 4 mps 752 mmHg 70%
    03:00 -1°C° 0 mm 4 mps 752 mmHg 73%
    04:00 -2°C° 0 mm 4 mps 751 mmHg 75%
    05:00 -1°C° 0 mm 3 mps 751 mmHg 77%
    06:00 0°C° 0 mm 3 mps 751 mmHg 77%
    07:00 0°C° 0 mm 3 mps 751 mmHg 77%
    08:00 +1°C° 0 mm 3 mps 751 mmHg 77%
    09:00 +1°C° 0.4 mm 3 mps 751 mmHg 78%
    10:00 +1°C° 0.4 mm 3 mps 750 mmHg 79%
    11:00 +3°C° 0.4 mm 2 mps 750 mmHg 81%
    12:00 +3°C° 0.4 mm 2 mps 750 mmHg 78%
    13:00 +4°C° 0.4 mm 2 mps 750 mmHg 76%
    14:00 +6°C° 0.4 mm 1 mps 750 mmHg 74%
    15:00 +6°C° 0.1 mm 1 mps 750 mmHg 74%
    16:00 +6°C° 0.1 mm 1 mps 750 mmHg 75%
    17:00 +6°C° 0.1 mm 1 mps 750 mmHg 75%
    18:00 +5°C° 0 mm 1 mps 750 mmHg 80%
    19:00 +3°C° 0 mm 1 mps 750 mmHg 85%
    20:00 +1°C° 0 mm 2 mps 750 mmHg 90%
    21:00 +1°C° 0 mm 2 mps 750 mmHg 91%
    22:00 +1°C° 0 mm 2 mps 750 mmHg 92%
    23:00 -1°C° 0 mm 2 mps 751 mmHg 93%

    26 March, Tuesday

    Time Temperature Precipitation Wind Pressure Humidity
    00:00 0°C° 0.2 mm 3 mps 751 mmHg 91%
    01:00 0°C° 0.2 mm 3 mps 751 mmHg 90%
    02:00 -1°C° 0.2 mm 4 mps 751 mmHg 88%
    03:00 -2°C° 0 mm 4 mps 751 mmHg 88%
    04:00 -2°C° 0 mm 4 mps 752 mmHg 88%
    05:00 -2°C° 0 mm 4 mps 752 mmHg 88%
    06:00 -2°C° 0 mm 4 mps 752 mmHg 85%
    07:00 -2°C° 0 mm 4 mps 752 mmHg 82%
    08:00 -2°C° 0 mm 4 mps 753 mmHg 80%
    09:00 0°C° 0 mm 3 mps 753 mmHg 72%
    10:00 +1°C° 0 mm 3 mps 753 mmHg 65%
    11:00 +2°C° 0 mm 3 mps 753 mmHg 57%
    12:00 +2°C° 0.3 mm 3 mps 753 mmHg 61%
    13:00 +1°C° 0.3 mm 3 mps 752 mmHg 64%
    14:00 +1°C° 0.3 mm 3 mps 752 mmHg 68%
    15:00 +1°C° 0.4 mm 3 mps 752 mmHg 69%
    16:00 +1°C° 0.4 mm 3 mps 752 mmHg 70%
    17:00 +1°C° 0.4 mm 3 mps 752 mmHg 71%
    18:00 0°C° 0 mm 3 mps 753 mmHg 75%
    19:00 -1°C° 0 mm 3 mps 754 mmHg 79%
    20:00 -2°C° 0 mm 3 mps 754 mmHg 83%
    21:00 -4°C° 0 mm 3 mps 754 mmHg 82%
    22:00 -4°C° 0 mm 3 mps 755 mmHg 82%
    23:00 -5°C° 0 mm 3 mps 755 mmHg 81%

    27 March, Wednesday

    Time Temperature Precipitation Wind Pressure Humidity
    00:00 -5°C° 0 mm 3 mps 756 mmHg 84%
    01:00 -5°C° 0 mm 3 mps 756 mmHg 86%
    02:00 -5°C° 0 mm 3 mps 756 mmHg 88%
    03:00 -6°C° 0 mm 3 mps 757 mmHg 89%
    04:00 -6°C° 0 mm 3 mps 757 mmHg 89%
    05:00 -6°C° 0 mm 3 mps 757 mmHg 90%
    06:00 -5°C° 0 mm 3 mps 758 mmHg 83%
    07:00 -4°C° 0 mm 3 mps 759 mmHg 75%
    08:00 -4°C° 0 mm 4 mps 759 mmHg 68%
    09:00 -3°C° 0 mm 4 mps 759 mmHg 63%
    10:00 -2°C° 0 mm 4 mps 760 mmHg 57%
    11:00 -1°C° 0 mm 4 mps 760 mmHg 52%
    12:00 -1°C° 0 mm 4 mps 760 mmHg 49%
    13:00 0°C° 0 mm 4 mps 760 mmHg 47%
    14:00 0°C° 0 mm 4 mps 761 mmHg 44%
    15:00 0°C° 0 mm 4 mps 761 mmHg 45%
    16:00 0°C° 0 mm 4 mps 761 mmHg 46%
    17:00 0°C° 0 mm 3 mps 762 mmHg 47%
    18:00 -1°C° 0 mm 3 mps 762 mmHg 53%
    19:00 -2°C° 0 mm 2 mps 763 mmHg 58%
    20:00 -3°C° 0 mm 2 mps 763 mmHg 63%
    21:00 -2°C° 0 mm 1 mps 764 mmHg 62%
    22:00 -2°C° 0 mm 1 mps 764 mmHg 61%
    23:00 -2°C° 0 mm 1 mps 764 mmHg 60%

    28 March, Thursday

    Time Temperature Precipitation Wind Pressure Humidity
    00:00 -1°C° 0 mm 1 mps 765 mmHg 59%
    01:00 -1°C° 0 mm 1 mps 765 mmHg 59%
    02:00 -1°C° 0 mm 1 mps 765 mmHg 58%
    03:00 -1°C° 0 mm 1 mps 765 mmHg 60%
    04:00 -3°C° 0 mm 2 mps 765 mmHg 63%
    05:00 -2°C° 0 mm 2 mps 765 mmHg 65%
    06:00 -2°C° 0 mm 2 mps 765 mmHg 67%
    07:00 -1°C° 0 mm 3 mps 765 mmHg 69%
    08:00 -1°C° 0 mm 4 mps 765 mmHg 70%
    09:00 0°C° 0 mm 4 mps 765 mmHg 70%
    10:00 +1°C° 0 mm 4 mps 765 mmHg 70%
    11:00 +3°C° 0 mm 4 mps 765 mmHg 70%
    12:00 +4°C° 0 mm 4 mps 765 mmHg 68%
    13:00 +5°C° 0 mm 4 mps 765 mmHg 65%
    14:00 +6°C° 0 mm 4 mps 765 mmHg 63%
    15:00 +5°C° 0 mm 3 mps 764 mmHg 65%
    16:00 +5°C° 0 mm 3 mps 764 mmHg 67%
    17:00 +6°C° 0 mm 2 mps 764 mmHg 69%
    18:00 +4°C° 0 mm 3 mps 764 mmHg 75%
    19:00 +2°C° 0 mm 3 mps 764 mmHg 81%
    20:00 +1°C° 0 mm 3 mps 764 mmHg 86%
    21:00 +1°C° 0 mm 3 mps 764 mmHg 87%
    22:00 +1°C° 0 mm 3 mps 764 mmHg 88%
    23:00 0°C° 0 mm 3 mps 764 mmHg 89%
    Show more